Location: ????????
(41.2031°N, 22.5756°E)
Time: 14:20:50
(UTC+00:00)

CZ-4B DEB - Pass Details

Date: 01 December 2020
Orbit: 841 x 861 km, 99.1° (Epoch: 20 January)

Event Time Altitude Azimuth Distance (km) Brightness Sun altitude
Rises 15:31:56 0° 167° (SSE) 3,398 7.5 -6.0°
Reaches altitude 10° 15:34:18 10° 168° (SSE) 2,464 6.8 -6.4°
Maximum altitude 15:39:46 80° 256° (WSW) 862 4.4 -7.3°
Drops below altitude 10° 15:45:16 10° 344° (NNW) 2,470 6.6 -8.3°
Sets 15:47:38 0° 345° (NNW) 3,407 7.3 -8.7°
